CZ-6A DEB, 54629

Orbit data source: Space-Track

CZ-6A DEB, 54629 is space debris in SSO originally from a launch on Fri, 11 Nov 2022 UTC launched from the Taiyaun Space Center, China (TSC). Debris objects in space refer to the collection of defunct objects orbiting the Earth. Examples of debris include non-operational satellites, rocket bodies, and fragments generated from explosions, collisions, or faulty payload assembly.

Loading next visibility...
Identifier
54629, 2022-151PF
Orbit
SSO
Country
Flag of CNCN / PRC
Related business
Manufacturer
SAST
Mission
Spacecraft
Bus & Motor
Unknown
Mass
Unknown
Launch date (UTC)
2022-11-11 (4 years ago)
Launch vehicle
Unknown
Launch site
Taiyaun Space Center, China (TSC)
Object type
Payload
Rocket body
Debris
Shape & HBR
Unknown shape, 0.1 m
Radar Cross Section
Medium (>0.1 m² and <1 m²)

Expand to show TLE details & history
Last TLE update: 22 hours ago

TLE from 22 hours ago
0 CZ-6A DEB
1 54629U 22151PF  26235.18664793  .00015242  00000-0  18809-2 0  9991
2 54629  98.6272 313.5476 0059470  50.5983 310.0472 14.81698457199498
Epoch: 2026-08-23T04:28Z
TLE epoch observation values (Epoch: 2026-08-23T04:28:46.381Z)
Latitude
-0.00002°
Longitude
-85.13196°
Altitude
600.317 km
Speed
7.574 km/s
True Right ascension
20h 54m 11s
True Declination
0° 00' 00"
Sunlit
Object was in full shadow at epoch
Visualization orbit readout
Latitude
Unknown
Longitude
Unknown
Altitude
Unknown
Speed
Unknown
Apparent Right ascension
Unknown
Apparent Declination
Unknown
Sunlit
N/A
Visualization observer readout
Local Sidereal Time
17:51:25
Azimuth
Unknown
Elevation
Unknown
Doppler factor
Unknown
Orbital elements
Apogee altitude
662.665 km
Perigee altitude
579.416 km
Semi-major axis
6,999.178 km
Eccentricity
0.00595
Inclination
98.6272°
RAAN
313.5476°
Arg. of periapsis
50.5983°
True anomaly
309.52302°
Mean anomaly
310.0472°
Eccentric anomaly
309.78536°
Mean motion
3.70657 °/min
Orbital period
97.12 mins
BSTAR
0.0018809
Loading maneuver chart data...
Computing Atmospheric mass density...

Documentation

Showing up to 5 results
|